This is the latest recevied weather packets stored in our database for station/object SP1BMW-13. If no packets are shown the sender has not sent any weather packets the latest 10 day(s).
| Time | Temp. | Humidity | Pressure | Rain* | Wind** | Luminosity | Snow |
|---|---|---|---|---|---|---|---|
| 1787897659 | 18.33° C | 61% | 1012.5 hPa | 0 mm | 0.45 m/s, 80° | 99 W/m² | - |
| 1787897599 | 18.33° C | 61% | 1012.5 hPa | 0 mm | 0.89 m/s, 67° | 99 W/m² | - |
| 1787897538 | 18.33° C | 60% | 1012.4 hPa | 0 mm | 0.89 m/s, 72° | 100 W/m² | - |
| 1787897478 | 18.33° C | 61% | 1012.6 hPa | 0 mm | 0.89 m/s, 85° | 102 W/m² | - |
| 1787897418 | 18.33° C | 61% | 1012.6 hPa | 0 mm | 0.89 m/s, 323° | 102 W/m² | - |
| 1787897358 | 18.33° C | 61% | 1012.6 hPa | 0 mm | 0.45 m/s, 65° | 101 W/m² | - |
| 1787897298 | 18.33° C | 61% | 1012.4 hPa | 0 mm | 0.89 m/s, 57° | 101 W/m² | - |
| 1787897238 | 18.33° C | 61% | 1012.5 hPa | 0 mm | 0.45 m/s, 38° | 100 W/m² | - |
| 1787897178 | 18.33° C | 61% | 1012.5 hPa | 0 mm | 1.34 m/s, 74° | 99 W/m² | - |
| 1787897118 | 18.33° C | 61% | 1012.5 hPa | 0 mm | 0.89 m/s, 19° | 98 W/m² | - |
| 1787897059 | 18.33° C | 61% | 1012.4 hPa | 0 mm | 0.89 m/s, 56° | 98 W/m² | - |
| 1787896998 | 18.33° C | 61% | 1012.4 hPa | 0 mm | 0.89 m/s, 40° | 97 W/m² | - |
| 1787896938 | 18.33° C | 61% | 1012.3 hPa | 0 mm | 2.24 m/s, 40° | 95 W/m² | - |
| 1787896878 | 18.33° C | 61% | 1012.2 hPa | 0 mm | 1.34 m/s, 70° | 94 W/m² | - |
| 1787896819 | 18.33° C | 61% | 1012.5 hPa | 0 mm | 1.34 m/s, 29° | 92 W/m² | - |
| 1787896759 | 18.33° C | 61% | 1012.4 hPa | 0 mm | 2.24 m/s, 98° | 90 W/m² | - |
| 1787896698 | 18.33° C | 61% | 1012.5 hPa | 0 mm | 0.89 m/s, 60° | 89 W/m² | - |
| 1787896638 | 18.33° C | 60% | 1012.7 hPa | 0 mm | 2.24 m/s, 63° | 87 W/m² | - |
| 1787896578 | 18.33° C | 61% | 1012.5 hPa | 0 mm | 1.79 m/s, 27° | 86 W/m² | - |
| 1787896518 | 18.33° C | 61% | 1012.7 hPa | 0 mm | 1.34 m/s, 87° | 84 W/m² | - |
| 1787896459 | 18.33° C | 61% | 1012.6 hPa | 0 mm | 0.89 m/s, 130° | 84 W/m² | - |
| 1787896398 | 18.33° C | 61% | 1012.7 hPa | 0 mm | 1.34 m/s, 34° | 84 W/m² | - |
| 1787896338 | 18.33° C | 61% | 1012.7 hPa | 0 mm | 0.89 m/s, 41° | 82 W/m² | - |
| 1787896278 | 18.33° C | 60% | 1012.5 hPa | 0 mm | 1.79 m/s, 21° | 84 W/m² | - |
| 1787896218 | 18.33° C | 61% | 1012.4 hPa | 0 mm | 0.89 m/s, 313° | 86 W/m² | - |
* Rain latest hour (hover to see other rain measurements)
** Current wind speed in m/s (hover to see current wind gust speed)